Weather History for KVJI - May, 2014

Change the Weather History Date:

Friday, May 30, 2014

  Actual Average (KTRI) Record (KTRI)
Temperature  
Mean Temperature 73 °F 67 °F  
Max Temperature 84 °F 79 °F 93 °F (2011)
Min Temperature 62 °F 55 °F 39 °F (1984)
Degree Days  
Heating Degree Days 0 1  
Month to date heating degree days 107  
Since 1 July heating degree days 4361  
Cooling Degree Days 8 4  
Month to date cooling degree days 60  
Year to date cooling degree days 71  
Growing Degree Days 23 (Base 50)    
Moisture  
Dew Point 63 °F    
Average Humidity 75    
Maximum Humidity 99    
Minimum Humidity 42    
Precipitation  
Precipitation 0.00 in 0.13 in 1.13 in (1972)
Month to date precipitation 3.67  
Year to date precipitation 17.26  
Snow  
Snow 0.00 in 0.00 in - ()
Month to date snowfall 0.0  
Since 1 July snowfall 13.3  
Snow Depth -    
Sea Level Pressure  
Sea Level Pressure 30.12 in    
Wind  
Wind Speed 2 mph (NNE)    
Max Wind Speed 9 mph    
Max Gust Speed -    
Visibility 9 miles    
Events      
T = Trace of Precipitation, MM = Missing Value Source: NWS Daily Summary

Daily Weather History Graph

Daily Weather History Graph

Search for Another Location

Airport or City:

Trip Planner

Search our weather history database for the weather conditions in past years. The results will help you decide how hot, cold, wet, or windy it might be!

Date:

Astronomy

May. 30, 2014 Rise Set
Actual Time 6:11 AM EDT 8:40 PM EDT
Civil Twilight 5:41 AM EDT 9:10 PM EDT
Nautical Twilight 5:04 AM EDT 9:47 PM EDT
Astronomical Twilight 4:23 AM EDT 10:28 PM EDT
Moon 7:53 AM EDT (5/30) 10:17 PM EDT (5/30)
Length of Visible Light 15h 28m
Length of Day
14h 28m
Waxing Crescent, 4% of the Moon is Illuminated
May 30
Waxing Crescent
Jun 5
First Quarter
Jun 13
Full
Jun 19
Last Quarter
Jun 27
New

Hourly Weather History & Observations

Time (EDT) Temp. Heat Index Dew Point Humidity Pressure Visibility Wind Dir Wind Speed Gust Speed Precip Events Conditions
12:15 AM 67.3 °F - 64.4 °F 90% 30.14 in 10.0 mi Calm Calm - N/A   Overcast
12:35 AM 67.1 °F - 64.4 °F 91% 30.13 in 10.0 mi NE 4.6 mph - N/A   Mostly Cloudy
12:55 AM 67.1 °F - 64.2 °F 90% 30.14 in 10.0 mi Calm Calm - N/A   Mostly Cloudy
1:15 AM 66.2 °F - 63.9 °F 92% 30.13 in 10.0 mi East 3.5 mph - N/A   Scattered Clouds
1:35 AM 66.2 °F - 63.9 °F 92% 30.13 in 10.0 mi Calm Calm - N/A   Clear
1:55 AM 65.5 °F - 63.3 °F 93% 30.13 in 10.0 mi ENE 3.5 mph - N/A   Clear
2:15 AM 66.7 °F - 64.2 °F 92% 30.12 in 10.0 mi East 5.8 mph - N/A   Scattered Clouds
2:35 AM 66.2 °F - 64.2 °F 93% 30.12 in 10.0 mi East 4.6 mph - N/A   Scattered Clouds
2:55 AM 66.2 °F - 64.0 °F 93% 30.11 in 10.0 mi ENE 3.5 mph - N/A   Scattered Clouds
3:15 AM 65.7 °F - 63.5 °F 93% 30.11 in 10.0 mi East 4.6 mph - N/A   Clear
3:35 AM 66.2 °F - 64.2 °F 93% 30.11 in 10.0 mi Calm Calm - N/A   Clear
3:55 AM 65.5 °F - 63.7 °F 94% 30.11 in 7.0 mi ENE 3.5 mph - N/A   Clear
4:15 AM 65.3 °F - 63.7 °F 94% 30.10 in 7.0 mi Calm Calm - N/A   Clear
4:35 AM 64.6 °F - 63.5 °F 96% 30.10 in 7.0 mi Calm Calm - N/A   Clear
4:55 AM 63.7 °F - 62.8 °F 97% 30.11 in 7.0 mi Calm Calm - N/A   Clear
5:15 AM 64.0 °F - 63.3 °F 97% 30.10 in 7.0 mi Calm Calm - N/A   Clear
5:35 AM 63.7 °F - 62.6 °F 96% 30.10 in 7.0 mi Calm Calm - N/A   Clear
5:55 AM 63.5 °F - 62.6 °F 97% 30.11 in 7.0 mi Calm Calm - N/A   Clear
6:15 AM 62.8 °F - 62.2 °F 98% 30.11 in 4.0 mi Calm Calm - N/A   Clear
6:35 AM 62.1 °F - 61.5 °F 98% 30.12 in 3.0 mi Calm Calm - N/A   Clear
6:55 AM 62.1 °F - 61.7 °F 99% 30.12 in 4.0 mi Calm Calm - N/A   Clear
7:15 AM 62.6 °F - 62.1 °F 98% 30.13 in 7.0 mi Calm Calm - N/A   Clear
7:35 AM 63.3 °F - 62.8 °F 98% 30.14 in 5.0 mi Calm Calm - N/A   Scattered Clouds
7:55 AM 65.3 °F - 64.4 °F 97% 30.14 in 5.0 mi Calm Calm - N/A   Mostly Cloudy
8:15 AM 66.9 °F - 64.6 °F 92% 30.14 in 10.0 mi Calm Calm - N/A   Scattered Clouds
8:35 AM 68.4 °F - 65.1 °F 89% 30.14 in 7.0 mi Calm Calm - N/A   Clear
8:55 AM 69.8 °F - 65.7 °F 87% 30.14 in 10.0 mi Calm Calm - N/A   Clear
9:15 AM 71.6 °F - 65.5 °F 81% 30.14 in 10.0 mi Calm Calm - N/A   Clear
9:35 AM 72.7 °F - 64.9 °F 77% 30.15 in 10.0 mi Calm Calm - N/A   Clear
9:55 AM 73.6 °F - 65.5 °F 76% 30.15 in 10.0 mi Calm Calm - N/A   Clear
10:15 AM 75.0 °F - 64.6 °F 70% 30.15 in 10.0 mi Calm Calm - N/A   Scattered Clouds
10:35 AM 75.4 °F - 64.2 °F 68% 30.16 in 10.0 mi SW 3.5 mph - N/A   Scattered Clouds
10:55 AM 76.3 °F - 63.5 °F 64% 30.16 in 10.0 mi Calm Calm - N/A   Mostly Cloudy
11:15 AM 76.1 °F - 63.9 °F 66% 30.16 in 10.0 mi WSW 3.5 mph - N/A   Mostly Cloudy
11:35 AM 76.5 °F - 63.1 °F 63% 30.16 in 10.0 mi Calm Calm - N/A   Mostly Cloudy
11:55 AM 78.3 °F - 64.2 °F 62% 30.16 in 10.0 mi NNW 3.5 mph - N/A   Overcast
12:15 PM 78.8 °F - 63.9 °F 60% 30.16 in 10.0 mi North 5.8 mph - N/A   Mostly Cloudy
12:35 PM 79.9 °F - 63.5 °F 57% 30.16 in 10.0 mi Calm Calm - N/A   Scattered Clouds
12:55 PM 80.2 °F 81.2 °F 61.2 °F 52% 30.16 in 10.0 mi NE 5.8 mph - N/A   Clear
1:15 PM 79.7 °F - 61.0 °F 53% 30.15 in 10.0 mi NNW 4.6 mph - N/A   Mostly Cloudy
1:35 PM 80.8 °F 81.6 °F 61.3 °F 51% 30.15 in 10.0 mi East 4.6 mph - N/A   Mostly Cloudy
1:55 PM 80.8 °F 81.6 °F 61.3 °F 51% 30.14 in 10.0 mi NNE 4.6 mph - N/A   Scattered Clouds
2:15 PM 81.9 °F 82.3 °F 60.3 °F 48% 30.13 in 10.0 mi North 4.6 mph - N/A   Scattered Clouds
2:35 PM 81.9 °F 82.2 °F 59.9 °F 47% 30.12 in 10.0 mi North 3.5 mph - N/A   Scattered Clouds
2:55 PM 81.5 °F 81.8 °F 59.4 °F 47% 30.12 in 10.0 mi ENE 6.9 mph - N/A   Scattered Clouds
3:15 PM 82.9 °F 83.0 °F 59.7 °F 45% 30.11 in 10.0 mi NE 4.6 mph - N/A   Scattered Clouds
3:35 PM 83.5 °F 83.4 °F 59.7 °F 44% 30.10 in 10.0 mi East 8.1 mph - N/A   Scattered Clouds
3:55 PM 82.4 °F 82.9 °F 60.6 °F 48% 30.10 in 10.0 mi North 4.6 mph - N/A   Scattered Clouds
4:15 PM 82.8 °F 83.1 °F 60.6 °F 47% 30.09 in 10.0 mi North 4.6 mph - N/A   Clear
4:35 PM 83.3 °F 82.9 °F 58.3 °F 42% 30.09 in 10.0 mi North 4.6 mph - N/A   Clear
5:15 PM 84.0 °F 83.8 °F 59.4 °F 43% 30.08 in 10.0 mi NW 3.5 mph - N/A   Scattered Clouds
5:35 PM 83.1 °F 83.2 °F 59.7 °F 45% 30.08 in 10.0 mi NE 3.5 mph - N/A   Mostly Cloudy
5:55 PM 83.7 °F 85.1 °F 64.4 °F 52% 30.08 in 10.0 mi WNW 4.6 mph - N/A   Mostly Cloudy
6:35 PM 81.7 °F 83.6 °F 65.5 °F 58% 30.08 in 10.0 mi WSW 9.2 mph - N/A   Overcast
6:55 PM 80.2 °F 82.1 °F 65.1 °F 60% 30.09 in 10.0 mi West 6.9 mph - N/A   Mostly Cloudy
7:15 PM 78.8 °F - 63.7 °F 60% 30.08 in 10.0 mi West 3.5 mph - N/A   Scattered Clouds
7:35 PM 78.1 °F - 63.7 °F 61% 30.09 in 10.0 mi West 5.8 mph - N/A   Mostly Cloudy
7:55 PM 77.5 °F - 64.6 °F 64% 30.10 in 10.0 mi WNW 6.9 mph - N/A   Mostly Cloudy
8:15 PM 76.3 °F - 63.9 °F 65% 30.10 in 10.0 mi West 5.8 mph - N/A   Scattered Clouds
8:35 PM 75.9 °F - 64.6 °F 68% 30.11 in 10.0 mi Calm Calm - N/A   Mostly Cloudy
8:55 PM 75.6 °F - 64.8 °F 69% 30.11 in 10.0 mi South 3.5 mph - N/A   Overcast
9:15 PM 75.2 °F - 65.1 °F 71% 30.11 in 10.0 mi SSE 4.6 mph - N/A   Overcast
9:35 PM 74.3 °F - 67.1 °F 78% 30.12 in 10.0 mi SSW 3.5 mph - N/A   Overcast
9:55 PM 73.6 °F - 66.6 °F 79% 30.12 in 10.0 mi Calm Calm - N/A   Scattered Clouds
10:15 PM 72.9 °F - 66.6 °F 81% 30.13 in 10.0 mi Calm Calm - N/A   Clear
10:35 PM 70.9 °F - 66.6 °F 86% 30.14 in 10.0 mi Calm Calm - N/A   Clear
10:55 PM 69.6 °F - 66.2 °F 89% 30.15 in 10.0 mi Calm Calm - N/A   Clear
11:15 PM 68.7 °F - 65.7 °F 90% 30.15 in 10.0 mi Calm Calm - N/A   Clear
11:35 PM 68.9 °F - 65.7 °F 89% 30.15 in 10.0 mi Calm Calm - N/A   Scattered Clouds
11:55 PM 67.8 °F - 64.6 °F 89% 30.15 in 10.0 mi Calm Calm - N/A   Mostly Cloudy